Medicine Hat, Alberta

7:53 AM MDT on July 27, 2017 (GMT -0600)
Medicine Hat

Weather History for CYXH - August, 2013

Change the Weather History Date:

Tuesday, August 6, 2013

  Actual Average Record
Temperature  
Mean Temperature 52 °F -  
Max Temperature 73 °F 78 °F 98 °F (1997)
Min Temperature 32 °F 51 °F 30 °F (2015)
Degree Days  
Heating Degree Days 12    
Growing Degree Days 2 (Base 50)    
Moisture  
Dew Point 49 °F    
Average Humidity 72    
Maximum Humidity 100    
Minimum Humidity 36    
Precipitation  
Precipitation 0.02 in 0.04 in - ()
Sea Level Pressure  
Sea Level Pressure 29.98 in    
Wind  
Wind Speed 10 mph ()    
Max Wind Speed 24 mph    
Max Gust Speed 30 mph    
Visibility 9.0 miles    
Events      
Averages and records for this station are not official NWS values.
T = Trace of Precipitation, MM = Missing Value Source: Averaged Metar Reports

Daily Weather History Graph

Daily Weather History Graph

Search for Another Location

Airport or City:

Trip Planner

Search our weather history database for the weather conditions in past years. The results will help you decide how hot, cold, wet, or windy it might be!

Date:

Astronomy

Aug. 06, 2013 Rise Set
Actual Time 5:59 AM MDT 8:56 PM MDT
Civil Twilight 5:22 AM MDT 9:34 PM MDT
Nautical Twilight 4:33 AM MDT 10:22 PM MDT
Astronomical Twilight 3:32 AM MDT 11:22 PM MDT
Moon 6:00 AM MDT (8/6) 8:23 PM MDT (8/6)
Length of Visible Light 16h 11m
Length of Day
14h 56m
Waning Crescent, 0% of the Moon is Illuminated
Aug 6
Waning Crescent
Aug 6
New
Aug 14
First Quarter
Aug 20
Full
Aug 28
Last Quarter

Hourly Weather History & Observations

Time (MDT) Temp. Dew Point Humidity Pressure Visibility Wind Dir Wind Speed Gust Speed Precip Events Conditions
12:00 AM 39 °F 38 °F 95% 29.87 in - West 23.0 mph - -  
12:00 AM 57.2 °F 53.6 °F 88% 29.92 in 9.0 mi SW 5.8 mph - N/A   Clear
1:00 AM 55.4 °F 51.8 °F 88% 29.92 in 9.0 mi SSW 3.5 mph - N/A   Clear
2:00 AM 55.4 °F 51.8 °F 88% 29.92 in 9.0 mi South 4.6 mph - N/A   Partly Cloudy
3:00 AM 53.6 °F 51.8 °F 94% 29.93 in 9.0 mi South 8.1 mph - N/A   Clear
4:00 AM 53.6 °F 51.8 °F 94% 29.94 in 9.0 mi SSW 5.8 mph - N/A   Clear
5:00 AM 51.8 °F 50.0 °F 94% 29.93 in 9.0 mi South 5.8 mph - N/A   Clear
6:00 AM 38 °F 38 °F 99% 29.99 in - West 24.2 mph - -  
6:00 AM 51.8 °F 50.0 °F 94% 29.94 in 9.0 mi SSW 6.9 mph - N/A   Clear
7:00 AM 53.6 °F 51.8 °F 94% 29.94 in 30.0 mi SSW 5.8 mph - N/A   Mostly Cloudy
8:00 AM 57.2 °F 53.6 °F 88% 29.96 in 30.0 mi SSW 6.9 mph - N/A   Scattered Clouds
9:00 AM 60.8 °F 55.4 °F 82% 29.96 in 30.0 mi SSW 9.2 mph - N/A   Scattered Clouds
10:00 AM 66.2 °F 55.4 °F 68% 29.96 in 30.0 mi West 8.1 mph - N/A   Scattered Clouds
11:00 AM 71.6 °F 57.2 °F 60% 29.95 in 30.0 mi WSW 11.5 mph - N/A   Mostly Cloudy
12:00 PM 35 °F 35 °F 100% 30.05 in - West 23.0 mph - -  
12:00 PM 73.4 °F 55.4 °F 53% 29.96 in 30.0 mi WNW 12.7 mph 23.0 mph N/A   Mostly Cloudy
1:00 PM 75.2 °F 53.6 °F 47% 29.96 in 30.0 mi NW 16.1 mph 26.5 mph N/A   Mostly Cloudy
2:00 PM 77.0 °F 48.2 °F 36% 29.97 in 30.0 mi WNW 18.4 mph 29.9 mph N/A   Mostly Cloudy
3:00 PM 77.0 °F 48.2 °F 36% 29.98 in 30.0 mi NW 17.3 mph - N/A   Scattered Clouds
4:00 PM 75.2 °F 48.2 °F 38% 29.99 in 30.0 mi NNW 17.3 mph 25.3 mph N/A   Partly Cloudy
5:00 PM 75.2 °F 48.2 °F 38% 30.00 in 30.0 mi North 16.1 mph - N/A   Partly Cloudy
6:00 PM 32 °F 32 °F 100% 30.13 in - ENE 1.2 mph - -  
6:00 PM 73.4 °F 48.2 °F 41% 30.00 in 30.0 mi North 10.4 mph - N/A   Partly Cloudy
7:00 PM 73.4 °F 50.0 °F 44% 30.01 in 30.0 mi NNE 11.5 mph 18.4 mph N/A   Mostly Cloudy
8:00 PM 68.0 °F 50.0 °F 52% 30.01 in 30.0 mi ENE 10.4 mph - N/A   Scattered Clouds
9:00 PM 66.2 °F 51.8 °F 60% 30.03 in 30.0 mi ENE 9.2 mph - N/A   Mostly Cloudy
10:00 PM 62.6 °F 51.8 °F 68% 30.04 in 9.0 mi ENE 6.9 mph - N/A   Partly Cloudy
11:00 PM 62.6 °F 51.8 °F 68% 30.04 in 9.0 mi ENE 5.8 mph - N/A   Mostly Cloudy